Temperature
9 9 9 8 8 8 8 7 7 7 6 6 6 5 5 5 5 5 5 5 5 4 4 4 4 3 2 2 1 1 0 0 -0 -0 -0 -0 -0 -0 -0 -0 0 1 1
9 9 9 8 8 8 7 7 7 6 6 6 6 5 5 5 5 5 4 4 4 4 4 4 3 3 2 1 1 0 -0 -0 -1 -1 -1 -1 -1 -1 -1 -1 -1 -0 0
9 9 9 8 8 7 7 7 6 6 6 6 5 5 5 5 4 4 4 4 4 4 3 3 3 2 1 1 0 -0 -1 -1 -1 -1 -1 -1 -1 -1 -1 -1 -1 -1 -1
9 9 9 8 8 7 7 7 6 6 6 6 5 5 5 5 4 4 4 4 3 3 3 3 2 2 1 0 -1 -1 -1 -1 -1 -2 -2 -2 -2 -2 -2 -2 -1 -1 -1
9 9 9 8 8 7 7 7 7 6 6 6 5 5 5 4 4 4 4 3 3 3 3 2 2 1 1 -0 -1 -2 -2 -2 -2 -2 -2 -2 -2 -2 -2 -2 -2 -2 -2
10 9 9 8 8 7 7 7 7 6 6 5 5 4 4 4 4 4 3 3 3 3 2 2 2 1 1 -0 -2 -2 -2 -2 -3 -3 -3 -3 -3 -3 -3 -3 -2 -2 -2
10 9 9 8 8 8 7 7 6 6 5 5 4 4 4 4 4 4 3 3 3 2 2 1 1 1 0 -1 -1 -2 -2 -3 -3 -3 -3 -3 -3 -3 -3 -3 -3 -2 -2
10 10 9 9 8 8 7 7 6 6 5 5 4 4 2 3 3 3 3 3 3 2 2 1 1 -0 -1 -1 -2 -2 -3 -4 -4 -4 -4 -4 -4 -4 -3 -3 -3 -3 -2
10 10 10 9 9 8 8 7 7 6 5 5 4 3 3 3 2 1 1 1 1 1 1 1 0 -0 -1 -2 -2 -3 -3 -4 -4 -4 -4 -4 -4 -4 -4 -3 -3 -3 -3
10 10 9 9 8 8 8 7 7 6 5 4 3 3 3 2 2 1 -0 -0 -0 0 0 0 -0 -1 -1 -2 -3 -3 -4 -4 -5 -5 -5 -5 -4 -4 -4 -4 -3 -3 -3
9 9 8 8 8 7 7 7 6 5 5 5 4 3 2 1 1 0 -1 -0 -1 -1 -1 -1 -1 -1 -2 -2 -3 -3 -4 -5 -5 -5 -5 -5 -5 -5 -4 -4 -4 -4 -4
8 8 7 7 7 7 6 6 5 4 4 3 3 3 3 2 2 1 0 0 -0 -1 -1 -2 -2 -2 -2 -3 -3 -4 -4 -5 -5 -5 -5 -5 -5 -5 -5 -5 -5 -5 -4
7 7 6 6 6 6 5 4 3 3 2 2 2 2 2 2 2 2 1 0 -1 -2 -3 -2 -1 -1 -2 -3 -3 -4 -5 -5 -5 -5 -5 -5 -6 -6 -6 -6 -5 -5 -5
6 6 5 5 5 5 4 3 2 2 1 1 1 0 0 1 1 1 0 -0 -2 -3 -4 -3 -2 -2 -2 -3 -4 -4 -5 -5 -5 -5 -6 -6 -6 -6 -6 -6 -6 -6 -5
5 5 5 5 4 4 4 3 2 2 1 0 -0 -1 -1 -1 -1 -0 -1 -1 -2 -4 -5 -3 -2 -1 -2 -3 -4 -5 -5 -5 -6 -6 -6 -6 -6 -6 -6 -6 -6 -6 -6
6 5 5 4 4 4 3 2 1 1 -0 -0 -1 -2 -2 -2 -2 -2 -2 -2 -2 -3 -5 -4 -3 -2 -3 -3 -4 -5 -5 -6 -6 -6 -6 -6 -6 -6 -6 -6 -6 -6 -6
6 6 5 4 4 3 3 2 1 0 -0 -1 -2 -2 -3 -3 -3 -3 -3 -3 -3 -4 -5 -4 -4 -3 -3 -3 -4 -5 -5 -6 -6 -6 -7 -7 -6 -6 -6 -6 -6 -6 -6
7 7 6 5 4 3 3 2 1 0 -1 -1 -2 -3 -3 -4 -4 -4 -4 -4 -4 -4 -4 -5 -4 -4 -4 -4 -5 -5 -6 -6 -6 -7 -7 -7 -7 -7 -7 -6 -6 -7 -7
7 7 6 5 5 4 3 2 1 0 -0 -1 -2 -3 -3 -4 -5 -5 -5 -5 -5 -4 -4 -6 -6 -5 -5 -5 -6 -6 -6 -7 -7 -7 -7 -7 -7 -7 -7 -7 -7 -7 -7
7 6 6 5 5 4 3 2 1 -0 -1 -2 -2 -3 -4 -5 -5 -5 -5 -5 -5 -5 -5 -6 -7 -7 -6 -5 -7 -7 -7 -7 -7 -7 -7 -7 -7 -8 -7 -7 -8 -8 -8
6 6 5 5 4 3 3 2 1 -0 -1 -2 -3 -4 -4 -5 -6 -6 -6 -6 -5 -5 -6 -6 -7 -7 -7 -6 -7 -7 -7 -7 -7 -7 -8 -8 -8 -8 -8 -9 -9 -9 -9
5 5 4 4 3 3 3 1 -0 -1 -2 -3 -3 -4 -5 -6 -6 -6 -6 -6 -6 -6 -6 -6 -7 -7 -6 -6 -7 -7 -8 -8 -8 -7 -8 -8 -9 -9 -9 -9 -9 -9 -9
4 4 4 3 3 3 2 0 -1 -3 -3 -4 -4 -5 -6 -6 -7 -7 -6 -6 -6 -6 -6 -6 -6 -6 -6 -6 -7 -7 -7 -8 -8 -8 -9 -9 -9 -9 -9 -10 -10 -9 -9
3 3 3 2 2 2 1 -1 -2 -4 -4 -4 -5 -5 -6 -7 -7 -7 -7 -6 -6 -6 -6 -6 -6 -6 -6 -7 -7 -7 -7 -8 -8 -8 -9 -9 -9 -10 -10 -10 -10 -10 -10
2 2 2 1 1 1 0 -1 -3 -4 -4 -4 -5 -6 -6 -7 -7 -7 -7 -7 -6 -6 -6 -6 -7 -7 -7 -7 -7 -7 -7 -8 -9 -9 -9 -10 -10 -10 -11 -11 -10 -10 -10
1 1 1 1 0 0 -1 -2 -3 -4 -5 -5 -5 -6 -6 -7 -7 -7 -7 -7 -7 -6 -6 -6 -7 -7 -7 -7 -7 -8 -8 -9 -9 -10 -10 -10 -11 -11 -11 -11 -11 -11 -11
Wind_Speed
13 14 14 15 16 16 15 12 12 10 9 7 6 6 5 5 6 6 7 9 11 12 13 13 14 14 15 15 16 17 18 19 19 20 20 20 21 21 21 22 22 23 24
17 14 13 14 15 16 15 15 13 9 8 7 7 7 7 8 8 8 9 10 12 13 13 14 14 14 15 16 17 18 19 19 20 21 21 21 22 22 22 22 23 23 23
20 18 13 12 16 17 16 14 12 8 6 6 6 9 10 9 9 10 11 10 11 13 14 14 14 15 16 17 18 19 19 20 21 22 22 23 23 23 23 23 24 24 24
23 19 13 12 18 18 15 10 6 5 6 6 5 6 8 9 10 12 13 13 13 13 14 15 16 16 17 18 19 20 21 21 22 23 23 24 24 24 24 25 25 25 25
25 20 15 15 18 15 12 9 6 7 6 6 6 6 5 6 9 12 13 15 15 16 15 16 17 18 19 19 20 21 22 23 23 24 25 25 25 26 26 26 26 27 27
26 22 16 16 17 9 9 8 8 8 6 5 6 6 6 5 8 10 12 14 15 16 17 17 18 18 20 20 21 22 23 24 25 25 26 26 26 27 27 27 28 28 28
25 23 14 14 14 11 11 11 8 8 8 5 3 4 6 9 10 9 11 11 13 16 18 18 18 19 18 21 22 23 24 25 26 26 27 27 27 28 28 29 29 29 30
25 25 17 11 11 11 13 13 10 8 7 8 5 3 4 5 9 12 8 8 9 13 15 18 19 19 20 20 21 25 26 26 27 28 28 28 28 29 29 30 30 30 31
25 23 22 15 12 13 14 16 14 14 11 10 8 6 5 8 3 4 9 9 9 7 9 14 18 20 21 21 22 25 27 28 28 29 29 29 29 30 30 31 31 31 31
21 24 22 20 13 13 14 15 16 13 10 9 8 8 6 5 5 3 4 7 10 10 10 12 15 19 22 22 23 25 28 28 29 30 30 30 30 31 31 32 32 32 32
17 20 21 18 16 14 15 14 15 15 14 12 8 6 8 6 5 6 5 5 6 7 9 9 13 17 20 21 22 25 29 30 30 30 30 31 31 32 32 33 33 33 33
13 16 17 16 15 15 15 15 14 16 16 15 12 9 7 6 8 9 11 8 7 6 8 8 8 12 17 19 23 28 29 30 30 31 31 31 32 33 33 34 34 34 34
12 15 17 17 16 16 13 12 15 16 17 16 17 14 12 11 5 8 9 8 8 6 6 7 8 13 18 19 22 28 28 29 30 30 31 32 33 33 34 35 35 35 36
12 12 17 18 18 16 16 15 15 16 14 17 19 17 13 12 10 9 9 7 6 6 8 8 6 10 16 18 21 26 23 28 30 31 32 33 34 34 35 36 36 37 37
10 12 15 17 18 18 17 16 16 17 15 15 16 16 14 11 10 10 9 9 8 7 8 8 7 7 11 13 19 19 19 26 31 32 34 34 35 36 37 37 38 38 38
11 11 12 15 16 17 17 17 16 15 16 16 13 15 16 12 10 10 11 10 10 10 8 7 8 6 6 13 21 21 20 28 32 33 34 35 36 36 37 38 38 39 40
12 13 12 13 15 16 17 17 18 15 18 17 16 17 18 15 13 11 11 10 12 12 15 10 7 9 10 12 14 18 21 22 24 32 35 35 36 37 38 38 39 40 41
12 12 12 13 14 15 16 18 19 19 19 20 19 17 18 16 16 13 13 13 13 13 13 15 9 9 12 11 11 13 15 20 20 29 33 35 36 37 38 39 39 40 41
11 11 12 14 14 14 15 17 18 18 19 19 18 19 18 18 18 16 15 15 13 14 12 13 12 10 11 11 11 14 16 13 19 25 29 31 33 35 36 38 39 40 40
11 12 12 13 13 12 14 15 15 16 16 17 17 18 18 19 18 17 16 16 14 13 12 12 13 11 12 10 10 12 13 11 13 16 21 26 31 35 36 38 38 39 39
11 11 11 12 11 11 12 13 13 15 15 16 16 17 19 23 26 22 17 14 14 13 12 12 13 12 12 10 11 10 13 12 12 12 12 14 15 14 17 28 33 36 38
10 10 11 12 12 12 21 26 20 14 15 16 16 15 17 24 29 34 34 29 23 17 15 14 13 14 14 12 10 11 12 13 16 7 10 14 11 15 13 11 28 35 37
10 11 12 12 14 16 25 27 29 16 15 16 16 15 15 18 25 17 25 32 29 32 28 18 16 16 15 12 11 14 14 16 18 10 11 18 12 15 14 18 32 34 36
10 10 11 12 13 16 24 26 26 18 14 16 16 16 16 15 17 18 16 16 17 17 20 15 13 14 13 12 13 15 16 16 16 12 10 17 15 15 16 12 27 33 35
10 10 9 10 12 14 21 24 24 11 12 14 15 16 17 16 25 29 19 17 18 17 22 27 26 24 27 28 22 13 12 14 17 13 6 11 16 16 16 14 18 30 31
10 9 10 10 11 11 18 22 22 9 11 11 11 15 24 24 26 28 19 16 17 15 12 13 16 19 17 18 24 14 10 13 16 14 6 7 12 12 14 11 10 11 14
Wind_Direction
185 189 197 195 197 199 201 210 222 214 207 217 224 235 250 267 275 284 288 295 301 306 309 312 315 316 317 318 318 319 319 319 320 320 321 321 322 322 322 322 322 322 322
188 192 196 198 199 203 199 204 216 210 208 213 223 236 244 252 258 266 272 278 288 294 297 299 302 305 307 308 310 311 312 313 313 314 314 314 315 315 315 315 315 315 315
192 193 197 196 198 202 202 204 214 208 210 214 220 233 238 241 250 260 266 267 268 277 284 287 290 293 296 299 301 303 305 306 307 308 308 308 309 309 309 309 309 309 309
198 195 197 198 196 197 198 195 200 192 208 211 218 227 227 228 237 249 255 256 254 256 265 276 282 284 288 291 294 296 298 300 301 303 303 304 304 304 304 304 304 303 303
202 199 199 199 194 193 194 197 197 196 203 209 214 220 221 226 234 244 244 244 244 245 249 260 271 277 281 284 287 289 291 293 296 298 299 300 301 301 301 300 300 299 298
203 203 202 199 194 192 194 196 199 199 202 200 217 229 226 226 233 236 238 242 240 240 243 246 253 263 272 277 281 283 286 289 291 293 295 297 297 297 297 296 296 296 295
201 203 204 201 198 199 199 196 192 198 204 183 192 260 256 236 234 232 228 228 231 234 237 238 241 245 254 266 273 278 283 285 287 289 291 292 293 294 293 292 293 293 292
201 205 205 202 201 201 201 200 195 193 197 185 175 188 263 269 234 229 215 216 221 225 229 236 238 240 242 246 256 268 275 280 283 286 287 289 290 290 290 290 290 289 289
205 206 208 206 204 204 208 205 198 196 202 197 186 171 191 227 254 230 215 217 216 215 223 231 237 240 242 244 247 258 267 273 277 280 283 285 286 287 288 288 288 287 287
210 209 209 209 209 210 212 209 206 202 194 199 203 210 200 171 182 250 258 225 219 221 224 233 239 239 240 242 246 255 262 268 273 276 279 282 284 286 287 287 287 287 287
216 214 212 211 214 215 214 211 209 206 206 204 196 188 213 219 195 196 241 241 231 225 225 227 234 237 239 240 243 252 263 268 271 273 277 280 284 286 287 287 287 287 286
218 217 215 215 216 218 217 214 212 212 212 212 210 199 184 186 202 205 220 224 229 231 228 228 232 235 240 243 249 260 264 268 270 273 277 280 283 284 285 286 286 285 285
223 219 217 219 220 220 217 213 215 217 215 214 215 217 212 209 183 189 206 216 225 229 230 235 237 242 248 246 248 259 264 268 271 274 278 280 282 282 283 283 283 283 283
229 217 215 219 221 219 220 218 220 221 219 220 221 219 220 217 209 201 200 199 224 234 228 234 238 237 243 243 249 262 266 270 273 276 278 279 280 280 280 281 281 281 281
232 218 214 216 219 219 219 219 224 224 221 222 223 221 223 221 216 213 209 203 207 230 235 220 231 234 236 246 261 267 262 268 273 275 276 278 279 280 280 280 280 279 279
234 227 219 217 217 218 218 220 225 223 222 223 220 220 222 221 219 216 217 216 215 225 239 218 224 235 254 266 269 269 268 273 275 277 278 279 280 279 279 279 279 279 278
234 232 228 223 220 219 218 221 224 220 223 225 221 220 222 216 219 219 218 219 222 225 244 245 235 250 254 259 267 267 269 268 269 273 275 277 278 279 279 279 278 278 278
237 235 232 230 228 223 219 220 224 223 223 224 222 220 221 218 219 218 219 221 225 226 236 250 249 250 253 256 258 262 269 269 266 271 274 276 278 279 279 279 279 279 278
242 237 233 234 232 226 222 222 223 224 225 224 221 220 220 216 219 219 220 222 227 231 233 245 253 251 257 259 261 266 265 265 268 272 276 278 280 280 280 280 280 280 279
243 241 238 237 234 228 226 226 224 224 224 224 221 221 219 217 218 218 221 223 226 230 233 241 251 255 258 256 255 264 269 263 266 271 275 278 279 281 281 282 282 281 280
253 247 244 242 236 231 231 228 226 226 225 224 223 222 221 221 221 221 223 223 223 228 232 240 248 254 257 256 255 258 268 273 268 265 272 272 274 273 274 277 278 279 278
258 251 246 245 243 240 246 245 239 230 228 227 227 225 224 230 231 231 231 228 223 223 228 234 242 248 253 253 257 261 270 278 281 251 259 273 270 274 273 268 275 277 276
257 252 247 244 245 247 252 253 249 237 226 228 228 226 228 228 230 231 238 240 237 234 231 230 240 247 254 255 259 268 268 270 275 274 280 282 276 277 276 276 280 280 279
262 257 251 246 246 250 255 257 255 247 231 226 225 224 225 225 226 225 227 233 240 245 246 244 244 251 256 260 259 264 271 275 275 269 261 279 284 283 282 276 282 281 280
271 265 259 251 250 254 258 260 257 243 236 230 224 222 222 224 229 230 227 227 234 240 247 249 251 255 258 264 267 271 272 280 284 281 248 269 283 287 285 282 279 280 279
275 273 267 258 255 254 259 262 259 242 239 237 229 224 226 225 228 231 228 224 230 235 233 244 253 261 265 269 273 268 266 274 281 286 260 259 281 290 291 275 264 271 277
Height
1549 1550 1550 1551 1551 1551 1552 1552 1552 1552 1552 1551 1551 1550 1550 1549 1548 1547 1546 1545 1544 1543 1542 1541 1539 1538 1537 1536 1535 1534 1533 1532 1531 1529 1528 1527 1526 1524 1523 1522 1521 1520 1519
1544 1545 1545 1546 1546 1547 1547 1548 1548 1548 1548 1547 1547 1547 1546 1545 1544 1543 1542 1541 1541 1539 1538 1537 1535 1534 1533 1532 1531 1530 1529 1528 1526 1525 1524 1522 1521 1520 1519 1518 1517 1516 1515
1538 1539 1540 1540 1541 1542 1542 1543 1543 1543 1543 1543 1542 1542 1541 1541 1540 1539 1538 1537 1536 1535 1534 1533 1531 1530 1529 1528 1527 1526 1524 1523 1522 1520 1519 1518 1516 1515 1514 1513 1512 1511 1510
1532 1533 1533 1534 1536 1536 1537 1537 1538 1538 1538 1537 1537 1537 1536 1536 1535 1535 1533 1532 1531 1530 1529 1528 1527 1525 1524 1523 1522 1521 1520 1518 1517 1515 1514 1512 1511 1510 1509 1508 1507 1506 1505
1525 1526 1527 1528 1530 1530 1530 1531 1531 1532 1532 1531 1531 1531 1530 1529 1529 1529 1528 1527 1526 1525 1524 1523 1521 1520 1519 1517 1516 1515 1514 1513 1511 1510 1508 1507 1505 1504 1503 1502 1501 1500 1499
1518 1519 1520 1521 1523 1523 1523 1524 1524 1525 1525 1525 1525 1524 1523 1523 1522 1522 1521 1521 1520 1519 1518 1517 1515 1514 1513 1511 1511 1510 1508 1507 1506 1504 1502 1501 1499 1498 1497 1496 1495 1494 1493
1509 1511 1512 1513 1514 1514 1515 1517 1518 1518 1518 1519 1518 1517 1515 1515 1514 1514 1514 1514 1513 1512 1511 1510 1509 1507 1506 1505 1504 1503 1502 1501 1500 1498 1496 1495 1493 1492 1490 1489 1488 1487 1486
1499 1501 1503 1504 1506 1506 1507 1508 1509 1509 1510 1511 1511 1510 1508 1506 1503 1505 1505 1505 1506 1505 1504 1503 1502 1500 1499 1497 1496 1495 1494 1493 1492 1491 1489 1488 1486 1485 1483 1482 1481 1480 1479
1490 1491 1493 1495 1496 1497 1497 1498 1499 1500 1500 1501 1501 1503 1501 1497 1497 1495 1495 1496 1498 1497 1497 1496 1495 1493 1492 1490 1488 1488 1486 1485 1484 1483 1482 1481 1479 1478 1476 1475 1474 1472 1471
1482 1483 1484 1485 1486 1487 1487 1488 1489 1490 1491 1490 1490 1490 1491 1492 1491 1488 1487 1487 1488 1488 1489 1489 1487 1486 1484 1483 1481 1480 1478 1477 1476 1475 1474 1473 1471 1470 1468 1467 1465 1464 1463
1474 1474 1475 1475 1476 1476 1476 1478 1478 1479 1479 1480 1479 1479 1480 1481 1481 1481 1478 1477 1478 1478 1480 1480 1479 1478 1477 1475 1474 1472 1471 1470 1468 1467 1466 1465 1463 1461 1459 1457 1456 1454 1453
1464 1465 1465 1465 1465 1466 1466 1467 1468 1469 1468 1469 1470 1469 1468 1468 1467 1468 1467 1466 1468 1469 1470 1471 1471 1470 1469 1468 1466 1465 1463 1462 1461 1459 1458 1456 1453 1451 1449 1447 1446 1444 1443
1456 1455 1456 1456 1455 1456 1456 1457 1458 1457 1457 1457 1457 1457 1457 1456 1458 1459 1459 1458 1458 1459 1460 1461 1462 1462 1461 1459 1457 1456 1455 1454 1452 1451 1449 1446 1444 1441 1439 1437 1435 1434 1432
1449 1449 1448 1447 1446 1446 1447 1447 1447 1446 1447 1446 1446 1446 1447 1446 1448 1448 1450 1451 1450 1449 1449 1449 1452 1453 1452 1450 1449 1448 1446 1445 1443 1441 1439 1436 1434 1431 1429 1427 1425 1423 1421
1442 1442 1440 1438 1437 1437 1436 1437 1436 1435 1436 1435 1435 1436 1437 1437 1439 1439 1441 1442 1443 1439 1436 1438 1442 1443 1443 1442 1440 1438 1436 1434 1433 1431 1429 1426 1424 1421 1419 1417 1414 1412 1410
1433 1432 1431 1429 1428 1426 1426 1426 1424 1424 1424 1423 1425 1426 1426 1427 1429 1431 1431 1432 1432 1431 1426 1426 1430 1433 1433 1431 1430 1428 1426 1424 1423 1421 1418 1416 1413 1411 1408 1406 1403 1401 1398
1423 1422 1421 1420 1418 1416 1415 1415 1413 1413 1413 1413 1413 1414 1414 1417 1418 1420 1422 1423 1423 1422 1418 1416 1420 1422 1422 1421 1419 1418 1416 1413 1411 1409 1407 1404 1402 1400 1397 1394 1391 1389 1386
1414 1412 1411 1409 1408 1406 1405 1403 1402 1401 1401 1400 1401 1402 1403 1406 1407 1410 1411 1412 1412 1413 1411 1408 1410 1412 1411 1411 1408 1407 1405 1403 1400 1398 1396 1394 1391 1388 1385 1382 1379 1376 1373
1406 1403 1401 1399 1397 1396 1395 1393 1391 1391 1390 1389 1390 1391 1392 1395 1395 1398 1400 1401 1403 1404 1403 1401 1399 1401 1401 1400 1398 1396 1394 1392 1390 1388 1385 1383 1380 1376 1373 1370 1366 1363 1360
1397 1394 1392 1390 1388 1386 1384 1383 1381 1380 1379 1379 1379 1380 1381 1383 1384 1388 1390 1391 1393 1394 1394 1393 1391 1391 1390 1390 1389 1386 1383 1382 1379 1377 1374 1371 1368 1364 1360 1357 1353 1349 1346
1389 1386 1383 1380 1378 1376 1374 1372 1371 1370 1368 1368 1368 1369 1370 1372 1374 1377 1379 1381 1383 1384 1384 1384 1382 1382 1380 1380 1379 1378 1375 1371 1367 1366 1361 1357 1354 1349 1344 1341 1338 1334 1331
1380 1377 1373 1371 1368 1365 1364 1362 1360 1357 1357 1356 1356 1357 1359 1362 1364 1368 1370 1371 1373 1373 1374 1374 1373 1372 1370 1371 1370 1369 1366 1362 1355 1354 1351 1343 1342 1335 1330 1327 1323 1320 1316
1371 1367 1364 1361 1358 1356 1354 1352 1350 1348 1345 1344 1345 1346 1348 1350 1354 1357 1360 1363 1364 1365 1365 1366 1364 1363 1362 1362 1362 1359 1356 1352 1346 1343 1341 1330 1328 1322 1318 1313 1310 1307 1303
1363 1359 1355 1352 1348 1346 1345 1342 1341 1340 1337 1335 1335 1336 1338 1340 1343 1346 1349 1351 1353 1355 1357 1357 1356 1355 1355 1354 1353 1350 1347 1341 1335 1333 1331 1322 1315 1310 1305 1300 1297 1293 1290
1355 1351 1348 1344 1340 1337 1336 1334 1332 1330 1328 1326 1325 1326 1328 1330 1333 1338 1341 1341 1343 1344 1347 1348 1348 1347 1346 1346 1345 1343 1338 1333 1325 1321 1321 1315 1306 1299 1292 1286 1283 1280 1277
1348 1344 1339 1336 1332 1329 1327 1325 1324 1321 1319 1318 1318 1318 1319 1321 1324 1329 1332 1333 1334 1335 1338 1338 1338 1338 1337 1336 1335 1334 1330 1325 1318 1310 1308 1305 1298 1293 1280 1272 1270 1268 1265